Location: Red Bud (historical)
(37.7759°N, 88.4053°W)
Time: 22:41:01
(UTC+00:00)

Okean O Rocket - Pass Details

Date: 29 October 2020
Orbit: 623 x 644 km, 98.2° (Epoch: 27 November)

Event Time Altitude Azimuth Distance (km) Brightness Sun altitude
Rises 23:49:00 0° 182° (S) 2,907 5.2 -10.7°
Reaches altitude 10° 23:51:16 10° 189° (S) 2,000 4.4 -11.2°
Maximum altitude 23:55:25 43° 261° (W) 885 3.0 -12.0°
Drops below altitude 10° 23:59:34 10° 333° (NNW) 2,004 4.4 -12.8°
Sets 00:01:51 0° 340° (NNW) 2,913 5.2 -13.2°
